Year,Month,Day,Hour,Minute,Value (Times are PST for temperature in C)
2010,07,14,00,00,14.70
2010,07,14,00,01,14.70
2010,07,14,00,02,14.70
2010,07,14,00,03,14.70
2010,07,14,00,04,14.70
2010,07,14,00,05,14.70
2010,07,14,00,06,14.70
2010,07,14,00,07,14.70
2010,07,14,00,08,14.70
2010,07,14,00,09,14.70
2010,07,14,00,10,14.70
2010,07,14,00,11,14.60
2010,07,14,00,12,14.60
2010,07,14,00,13,14.60
2010,07,14,00,14,14.60
2010,07,14,00,15,14.60
2010,07,14,00,16,14.60
2010,07,14,00,17,14.60
2010,07,14,00,18,14.60
2010,07,14,00,19,14.60
2010,07,14,00,20,14.60
2010,07,14,00,21,14.60
2010,07,14,00,22,14.60
2010,07,14,00,23,14.70
2010,07,14,00,24,14.70
2010,07,14,00,25,14.70
2010,07,14,00,26,14.70
2010,07,14,00,27,14.70
2010,07,14,00,28,14.70
2010,07,14,00,29,14.80
2010,07,14,00,30,14.80
2010,07,14,00,31,14.80
2010,07,14,00,32,14.80
2010,07,14,00,33,14.80
2010,07,14,00,34,14.70
2010,07,14,00,35,14.70
2010,07,14,00,36,14.70
2010,07,14,00,37,14.70
2010,07,14,00,38,14.70
2010,07,14,00,39,14.60
2010,07,14,00,40,14.60
2010,07,14,00,41,14.60
2010,07,14,00,42,14.60
2010,07,14,00,43,14.70
2010,07,14,00,44,14.70
2010,07,14,00,45,14.70
2010,07,14,00,46,14.70
2010,07,14,00,47,14.70
2010,07,14,00,48,14.70
2010,07,14,00,49,14.70
2010,07,14,00,50,14.70
2010,07,14,00,51,14.70
2010,07,14,00,52,14.70
2010,07,14,00,53,14.60
2010,07,14,00,54,14.60
2010,07,14,00,55,14.60
2010,07,14,00,56,14.60
2010,07,14,00,57,14.60
2010,07,14,00,58,14.60
2010,07,14,00,59,14.60
2010,07,14,01,00,14.50
2010,07,14,01,01,14.50
2010,07,14,01,02,14.50
2010,07,14,01,03,14.50
2010,07,14,01,04,14.40
2010,07,14,01,05,14.40
2010,07,14,01,06,14.40
2010,07,14,01,07,14.40
2010,07,14,01,08,14.30
2010,07,14,01,09,14.30
2010,07,14,01,10,14.30
2010,07,14,01,11,14.30
2010,07,14,01,12,14.30
2010,07,14,01,13,14.30
2010,07,14,01,14,14.30
2010,07,14,01,15,14.30
2010,07,14,01,16,14.30
2010,07,14,01,17,14.30
2010,07,14,01,18,14.30
2010,07,14,01,19,14.30
2010,07,14,01,20,14.30
2010,07,14,01,21,14.30
2010,07,14,01,22,14.30
2010,07,14,01,23,14.30
2010,07,14,01,24,14.30
2010,07,14,01,25,14.30
2010,07,14,01,26,14.30
2010,07,14,01,27,14.30
2010,07,14,01,28,14.20
2010,07,14,01,29,14.20
2010,07,14,01,30,14.20
2010,07,14,01,31,14.20
2010,07,14,01,32,14.20
2010,07,14,01,33,14.10
2010,07,14,01,34,14.10
2010,07,14,01,35,14.10
2010,07,14,01,36,14.00
2010,07,14,01,37,14.00
2010,07,14,01,38,13.90
2010,07,14,01,39,13.90
2010,07,14,01,40,13.90
2010,07,14,01,41,13.80
2010,07,14,01,42,13.80
2010,07,14,01,43,13.80
2010,07,14,01,44,13.70
2010,07,14,01,45,13.70
2010,07,14,01,46,13.70
2010,07,14,01,47,13.60
2010,07,14,01,48,13.60
2010,07,14,01,49,13.60
2010,07,14,01,50,13.60
2010,07,14,01,51,13.60
2010,07,14,01,52,13.60
2010,07,14,01,53,13.50
2010,07,14,01,54,13.50
2010,07,14,01,55,13.50
2010,07,14,01,56,13.50
2010,07,14,01,57,13.40
2010,07,14,01,58,13.40
2010,07,14,01,59,13.40
2010,07,14,02,00,13.40
2010,07,14,02,01,13.40
2010,07,14,02,02,13.40
2010,07,14,02,03,13.40
2010,07,14,02,04,13.40
2010,07,14,02,05,13.40
2010,07,14,02,06,13.40
2010,07,14,02,07,13.40
2010,07,14,02,08,13.40
2010,07,14,02,09,13.40
2010,07,14,02,10,13.40
2010,07,14,02,11,13.40
2010,07,14,02,12,13.30
2010,07,14,02,13,13.30
2010,07,14,02,14,13.30
2010,07,14,02,15,13.30
2010,07,14,02,16,13.20
2010,07,14,02,17,13.20
2010,07,14,02,18,13.20
2010,07,14,02,19,13.20
2010,07,14,02,20,13.20
2010,07,14,02,21,13.10
2010,07,14,02,22,13.10
2010,07,14,02,23,13.10
2010,07,14,02,24,13.10
2010,07,14,02,25,13.00
2010,07,14,02,26,13.00
2010,07,14,02,27,13.00
2010,07,14,02,28,12.90
2010,07,14,02,29,12.90
2010,07,14,02,30,12.90
2010,07,14,02,31,12.80
2010,07,14,02,32,12.80
2010,07,14,02,33,12.80
2010,07,14,02,34,12.70
2010,07,14,02,35,12.70
2010,07,14,02,36,12.60
2010,07,14,02,37,12.60
2010,07,14,02,38,12.60
2010,07,14,02,39,12.50
2010,07,14,02,40,12.50
2010,07,14,02,41,12.40
2010,07,14,02,42,12.40
2010,07,14,02,43,12.30
2010,07,14,02,44,12.30
2010,07,14,02,45,12.20
2010,07,14,02,46,12.20
2010,07,14,02,47,12.10
2010,07,14,02,48,12.10
2010,07,14,02,49,12.00
2010,07,14,02,50,12.00
2010,07,14,02,51,11.90
2010,07,14,02,52,11.90
2010,07,14,02,53,11.90
2010,07,14,02,54,11.90
2010,07,14,02,55,11.80
2010,07,14,02,56,11.80
2010,07,14,02,57,11.80
2010,07,14,02,58,11.70
2010,07,14,02,59,11.70
2010,07,14,03,00,11.70
2010,07,14,03,01,11.70
2010,07,14,03,02,11.60
2010,07,14,03,03,11.60
2010,07,14,03,04,11.60
2010,07,14,03,05,11.50
2010,07,14,03,06,11.50
2010,07,14,03,07,11.40
2010,07,14,03,08,11.40
2010,07,14,03,09,11.40
2010,07,14,03,10,11.40
2010,07,14,03,11,11.30
2010,07,14,03,12,11.30
2010,07,14,03,13,11.30
2010,07,14,03,14,11.30
2010,07,14,03,15,11.20
2010,07,14,03,16,11.20
2010,07,14,03,17,11.20
2010,07,14,03,18,11.20
2010,07,14,03,19,11.20
2010,07,14,03,20,11.10
2010,07,14,03,21,11.10
2010,07,14,03,22,11.00
2010,07,14,03,23,11.00
2010,07,14,03,24,10.90
2010,07,14,03,25,10.90
2010,07,14,03,26,10.80
2010,07,14,03,27,10.80
2010,07,14,03,28,10.80
2010,07,14,03,29,10.80
2010,07,14,03,30,10.70
2010,07,14,03,31,10.70
2010,07,14,03,32,10.80
2010,07,14,03,33,10.80
2010,07,14,03,34,10.70
2010,07,14,03,35,10.70
2010,07,14,03,36,10.70
2010,07,14,03,37,10.80
2010,07,14,03,38,10.80
2010,07,14,03,39,10.80
2010,07,14,03,40,10.80
2010,07,14,03,41,10.80
2010,07,14,03,42,10.80
2010,07,14,03,43,10.80
2010,07,14,03,44,10.80
2010,07,14,03,45,10.80
2010,07,14,03,46,10.80
2010,07,14,03,47,10.80
2010,07,14,03,48,10.80
2010,07,14,03,49,10.80
2010,07,14,03,50,10.80
2010,07,14,03,51,10.80
2010,07,14,03,52,10.80
2010,07,14,03,53,10.80
2010,07,14,03,54,10.80
2010,07,14,03,55,10.80
2010,07,14,03,56,10.80
2010,07,14,03,57,10.80
2010,07,14,03,58,10.70
2010,07,14,03,59,10.70
2010,07,14,04,00,10.70
2010,07,14,04,01,10.70
2010,07,14,04,02,10.70
2010,07,14,04,03,10.70
2010,07,14,04,04,10.60
2010,07,14,04,05,10.60
2010,07,14,04,06,10.60
2010,07,14,04,07,10.60
2010,07,14,04,08,10.60
2010,07,14,04,09,10.60
2010,07,14,04,10,10.60
2010,07,14,04,11,10.60
2010,07,14,04,12,10.50
2010,07,14,04,13,10.50
2010,07,14,04,14,10.50
2010,07,14,04,15,10.50
2010,07,14,04,16,10.50
2010,07,14,04,17,10.50
2010,07,14,04,18,10.50
2010,07,14,04,19,10.40
2010,07,14,04,20,10.40
2010,07,14,04,21,10.40
2010,07,14,04,22,10.40
2010,07,14,04,23,10.40
2010,07,14,04,24,10.40
2010,07,14,04,25,10.40
2010,07,14,04,26,10.40
2010,07,14,04,27,10.40
2010,07,14,04,28,10.40
2010,07,14,04,29,10.40
2010,07,14,04,30,10.30
2010,07,14,04,31,10.30
2010,07,14,04,32,10.30
2010,07,14,04,33,10.30
2010,07,14,04,34,10.30
2010,07,14,04,35,10.20
2010,07,14,04,36,10.20
2010,07,14,04,37,10.20
2010,07,14,04,38,10.20
2010,07,14,04,39,10.20
2010,07,14,04,40,10.10
2010,07,14,04,41,10.10
2010,07,14,04,42,10.10
2010,07,14,04,43,10.00
2010,07,14,04,44,10.00
2010,07,14,04,45,9.90
2010,07,14,04,46,9.90
2010,07,14,04,47,9.90
2010,07,14,04,48,9.90
2010,07,14,04,49,9.80
2010,07,14,04,50,9.80
2010,07,14,04,51,9.80
2010,07,14,04,52,9.80
2010,07,14,04,53,9.80
2010,07,14,04,54,9.80
2010,07,14,04,55,9.80
2010,07,14,04,56,9.90
2010,07,14,04,57,9.90
2010,07,14,04,58,9.90
2010,07,14,04,59,9.90
2010,07,14,05,00,9.90
2010,07,14,05,01,10.00
2010,07,14,05,02,10.00
2010,07,14,05,03,10.00
2010,07,14,05,04,10.00
2010,07,14,05,05,10.00
2010,07,14,05,06,10.10
2010,07,14,05,07,10.10
2010,07,14,05,08,10.10
2010,07,14,05,09,10.10
2010,07,14,05,10,10.10
2010,07,14,05,11,10.10
2010,07,14,05,12,10.10
2010,07,14,05,13,10.10
2010,07,14,05,14,10.10
2010,07,14,05,15,10.10
2010,07,14,05,16,10.10
2010,07,14,05,17,10.10
2010,07,14,05,18,10.10
2010,07,14,05,19,10.10
2010,07,14,05,20,10.10
2010,07,14,05,21,10.10
2010,07,14,05,22,10.00
2010,07,14,05,23,10.00
2010,07,14,05,24,10.00
2010,07,14,05,25,9.90
2010,07,14,05,26,9.90
2010,07,14,05,27,9.90
2010,07,14,05,28,9.80
2010,07,14,05,29,9.80
2010,07,14,05,30,9.80
2010,07,14,05,31,9.80
2010,07,14,05,32,9.70
2010,07,14,05,33,9.70
2010,07,14,05,34,9.70
2010,07,14,05,35,9.70
2010,07,14,05,36,9.70
2010,07,14,05,37,9.70
2010,07,14,05,38,9.70
2010,07,14,05,39,9.70
2010,07,14,05,40,9.70
2010,07,14,05,41,9.70
2010,07,14,05,42,9.70
2010,07,14,05,43,9.70
2010,07,14,05,44,9.70
2010,07,14,05,45,9.80
2010,07,14,05,46,9.80
2010,07,14,05,47,9.80
2010,07,14,05,48,9.80
2010,07,14,05,49,9.80
2010,07,14,05,50,9.80
2010,07,14,05,51,9.80
2010,07,14,05,52,9.80
2010,07,14,05,53,9.80
2010,07,14,05,54,9.80
2010,07,14,05,55,9.80
2010,07,14,05,56,9.80
2010,07,14,05,57,9.80
2010,07,14,05,58,9.80
2010,07,14,05,59,9.80
2010,07,14,06,00,9.80
2010,07,14,06,01,9.80
2010,07,14,06,02,9.80
2010,07,14,06,03,9.80
2010,07,14,06,04,9.80
2010,07,14,06,05,9.80
2010,07,14,06,06,9.90
2010,07,14,06,07,9.90
2010,07,14,06,08,10.00
2010,07,14,06,09,10.00
2010,07,14,06,10,10.00
2010,07,14,06,11,10.10
2010,07,14,06,12,10.10
2010,07,14,06,13,10.10
2010,07,14,06,14,10.10
2010,07,14,06,15,10.10
2010,07,14,06,16,10.10
2010,07,14,06,17,10.10
2010,07,14,06,18,10.10
2010,07,14,06,19,10.10
2010,07,14,06,20,10.10
2010,07,14,06,21,10.10
2010,07,14,06,22,10.10
2010,07,14,06,23,10.20
2010,07,14,06,24,10.20
2010,07,14,06,25,10.20
2010,07,14,06,26,10.20
2010,07,14,06,27,10.30
2010,07,14,06,28,10.30
2010,07,14,06,29,10.30
2010,07,14,06,30,10.30
2010,07,14,06,31,10.40
2010,07,14,06,32,10.50
2010,07,14,06,33,10.50
2010,07,14,06,34,10.50
2010,07,14,06,35,10.60
2010,07,14,06,36,10.60
2010,07,14,06,37,10.60
2010,07,14,06,38,10.70
2010,07,14,06,39,10.80
2010,07,14,06,40,10.80
2010,07,14,06,41,10.90
2010,07,14,06,42,11.00
2010,07,14,06,43,11.10
2010,07,14,06,44,11.10
2010,07,14,06,45,11.20
2010,07,14,06,46,11.30
2010,07,14,06,47,11.40
2010,07,14,06,48,11.50
2010,07,14,06,49,11.60
2010,07,14,06,50,11.70
2010,07,14,06,51,11.80
2010,07,14,06,52,11.80
2010,07,14,06,53,11.90
2010,07,14,06,54,12.00
2010,07,14,06,55,12.10
2010,07,14,06,56,12.10
2010,07,14,06,57,12.20
2010,07,14,06,58,12.20
2010,07,14,06,59,12.30
2010,07,14,07,00,12.30
2010,07,14,07,01,12.40
2010,07,14,07,02,12.40
2010,07,14,07,03,12.40
2010,07,14,07,04,12.40
2010,07,14,07,05,12.50
2010,07,14,07,06,12.50
2010,07,14,07,07,12.60
2010,07,14,07,08,12.60
2010,07,14,07,09,12.60
2010,07,14,07,10,12.70
2010,07,14,07,11,12.70
2010,07,14,07,12,12.80
2010,07,14,07,13,12.80
2010,07,14,07,14,12.90
2010,07,14,07,15,12.90
2010,07,14,07,16,13.00
2010,07,14,07,17,13.00
2010,07,14,07,18,13.10
2010,07,14,07,19,13.10
2010,07,14,07,20,13.20
2010,07,14,07,21,13.30
2010,07,14,07,22,13.30
2010,07,14,07,23,13.40
2010,07,14,07,24,13.40
2010,07,14,07,25,13.50
2010,07,14,07,26,13.50
2010,07,14,07,27,13.50
2010,07,14,07,28,13.60
2010,07,14,07,29,13.60
2010,07,14,07,30,13.60
2010,07,14,07,31,13.60
2010,07,14,07,32,13.70
2010,07,14,07,33,13.70
2010,07,14,07,34,13.70
2010,07,14,07,35,13.80
2010,07,14,07,36,13.80
2010,07,14,07,37,13.80
2010,07,14,07,38,13.90
2010,07,14,07,39,13.90
2010,07,14,07,40,14.00
2010,07,14,07,41,14.00
2010,07,14,07,42,14.10
2010,07,14,07,43,14.20
2010,07,14,07,44,14.20
2010,07,14,07,45,14.30
2010,07,14,07,46,14.40
2010,07,14,07,47,14.40
2010,07,14,07,48,14.50
2010,07,14,07,49,14.60
2010,07,14,07,50,14.70
2010,07,14,07,51,14.80
2010,07,14,07,52,14.90
2010,07,14,07,53,15.00
2010,07,14,07,54,15.00
2010,07,14,07,55,15.10
2010,07,14,07,56,15.20
2010,07,14,07,57,15.20
2010,07,14,07,58,15.30
2010,07,14,07,59,15.40
2010,07,14,08,00,15.50
2010,07,14,08,01,15.50
2010,07,14,08,02,15.60
2010,07,14,08,03,15.60
2010,07,14,08,04,15.70
2010,07,14,08,05,15.70
2010,07,14,08,06,15.80
2010,07,14,08,07,15.80
2010,07,14,08,08,15.90
2010,07,14,08,09,15.90
2010,07,14,08,10,16.00
2010,07,14,08,11,16.10
2010,07,14,08,12,16.20
2010,07,14,08,13,16.20
2010,07,14,08,14,16.30
2010,07,14,08,15,16.30
2010,07,14,08,16,16.40
2010,07,14,08,17,16.50
2010,07,14,08,18,16.50
2010,07,14,08,19,16.60
2010,07,14,08,20,16.60
2010,07,14,08,21,16.60
2010,07,14,08,22,16.70
2010,07,14,08,23,16.70
2010,07,14,08,24,16.70
2010,07,14,08,25,16.70
2010,07,14,08,26,16.70
2010,07,14,08,27,16.70
2010,07,14,08,28,16.70
2010,07,14,08,29,16.70
2010,07,14,08,30,16.70
2010,07,14,08,31,16.70
2010,07,14,08,32,16.70
2010,07,14,08,33,16.70
2010,07,14,08,34,16.70
2010,07,14,08,35,16.80
2010,07,14,08,36,16.80
2010,07,14,08,37,16.80
2010,07,14,08,38,16.90
2010,07,14,08,39,16.90
2010,07,14,08,40,16.90
2010,07,14,08,41,16.90
2010,07,14,08,42,17.00
2010,07,14,08,43,17.10
2010,07,14,08,44,17.10
2010,07,14,08,45,17.20
2010,07,14,08,46,17.20
2010,07,14,08,47,17.30
2010,07,14,08,48,17.40
2010,07,14,08,49,17.40
2010,07,14,08,50,17.50
2010,07,14,08,51,17.50
2010,07,14,08,52,17.60
2010,07,14,08,53,17.60
2010,07,14,08,54,17.60
2010,07,14,08,55,17.60
2010,07,14,08,56,17.60
2010,07,14,08,57,17.70
2010,07,14,08,58,17.70
2010,07,14,08,59,17.70
2010,07,14,09,00,17.80
2010,07,14,09,01,17.80
2010,07,14,09,02,17.80
2010,07,14,09,03,17.90
2010,07,14,09,04,17.90
2010,07,14,09,05,17.90
2010,07,14,09,06,17.90
2010,07,14,09,07,17.90
2010,07,14,09,08,17.90
2010,07,14,09,09,17.80
2010,07,14,09,10,17.80
2010,07,14,09,11,17.80
2010,07,14,09,12,17.80
2010,07,14,09,13,17.80
2010,07,14,09,14,17.80
2010,07,14,09,15,17.80
2010,07,14,09,16,17.80
2010,07,14,09,17,17.80
2010,07,14,09,18,17.80
2010,07,14,09,19,17.90
2010,07,14,09,20,17.90
2010,07,14,09,21,18.00
2010,07,14,09,22,18.00
2010,07,14,09,23,18.10
2010,07,14,09,24,18.10
2010,07,14,09,25,18.10
2010,07,14,09,26,18.20
2010,07,14,09,27,18.30
2010,07,14,09,28,18.50
2010,07,14,09,29,18.60
2010,07,14,09,30,18.70
2010,07,14,09,31,18.80
2010,07,14,09,32,18.90
2010,07,14,09,33,19.00
2010,07,14,09,34,19.10
2010,07,14,09,35,19.30
2010,07,14,09,36,19.40
2010,07,14,09,37,19.50
2010,07,14,09,38,19.60
2010,07,14,09,39,19.70
2010,07,14,09,40,19.80
2010,07,14,09,41,19.80
2010,07,14,09,42,19.90
2010,07,14,09,43,20.00
2010,07,14,09,44,20.00
2010,07,14,09,45,20.00
2010,07,14,09,46,20.00
2010,07,14,09,47,19.90
2010,07,14,09,48,19.90
2010,07,14,09,49,19.90
2010,07,14,09,50,19.90
2010,07,14,09,51,19.80
2010,07,14,09,52,19.60
2010,07,14,09,53,19.50
2010,07,14,09,54,19.30
2010,07,14,09,55,19.20
2010,07,14,09,56,19.10
2010,07,14,09,57,19.10
2010,07,14,09,58,19.10
2010,07,14,09,59,19.10
2010,07,14,10,00,19.10
2010,07,14,10,01,19.10
2010,07,14,10,02,19.10
2010,07,14,10,03,19.10
2010,07,14,10,04,19.10
2010,07,14,10,05,19.10
2010,07,14,10,06,19.10
2010,07,14,10,07,19.10
2010,07,14,10,08,19.10
2010,07,14,10,09,19.00
2010,07,14,10,10,18.90
2010,07,14,10,11,18.90
2010,07,14,10,12,19.00
2010,07,14,10,13,19.00
2010,07,14,10,14,19.10
2010,07,14,10,15,19.10
2010,07,14,10,16,19.10
2010,07,14,10,17,19.20
2010,07,14,10,18,19.20
2010,07,14,10,19,19.30
2010,07,14,10,20,19.40
2010,07,14,10,21,19.60
2010,07,14,10,22,19.70
2010,07,14,10,23,19.70
2010,07,14,10,24,19.70
2010,07,14,10,25,19.80
2010,07,14,10,26,19.80
2010,07,14,10,27,19.80
2010,07,14,10,28,19.80
2010,07,14,10,29,19.70
2010,07,14,10,30,19.80
2010,07,14,10,31,19.80
2010,07,14,10,32,19.90
2010,07,14,10,33,19.90
2010,07,14,10,34,19.90
2010,07,14,10,35,19.90
2010,07,14,10,36,19.90
2010,07,14,10,37,19.80
2010,07,14,10,38,19.70
2010,07,14,10,39,19.70
2010,07,14,10,40,19.70
2010,07,14,10,41,19.80
2010,07,14,10,42,19.80
2010,07,14,10,43,19.90
2010,07,14,10,44,20.00
2010,07,14,10,45,20.10
2010,07,14,10,46,20.10
2010,07,14,10,47,20.20
2010,07,14,10,48,20.20
2010,07,14,10,49,20.30
2010,07,14,10,50,20.40
2010,07,14,10,51,20.50
2010,07,14,10,52,20.60
2010,07,14,10,53,20.60
2010,07,14,10,54,20.70
2010,07,14,10,55,20.70
2010,07,14,10,56,20.60
2010,07,14,10,57,20.60
2010,07,14,10,58,20.50
2010,07,14,10,59,20.50
2010,07,14,11,00,20.40
2010,07,14,11,01,20.40
2010,07,14,11,02,20.30
2010,07,14,11,03,20.30
2010,07,14,11,04,20.30
2010,07,14,11,05,20.40
2010,07,14,11,06,20.50
2010,07,14,11,07,20.60
2010,07,14,11,08,20.70
2010,07,14,11,09,20.90
2010,07,14,11,10,21.00
2010,07,14,11,11,21.10
2010,07,14,11,12,21.30
2010,07,14,11,13,21.40
2010,07,14,11,14,21.50
2010,07,14,11,15,21.50
2010,07,14,11,16,21.30
2010,07,14,11,17,21.20
2010,07,14,11,18,21.00
2010,07,14,11,19,20.90
2010,07,14,11,20,20.90
2010,07,14,11,21,20.90
2010,07,14,11,22,21.00
2010,07,14,11,23,21.00
2010,07,14,11,24,20.90
2010,07,14,11,25,20.90
2010,07,14,11,26,20.90
2010,07,14,11,27,21.10
2010,07,14,11,28,21.10
2010,07,14,11,29,21.10
2010,07,14,11,30,21.10
2010,07,14,11,31,21.00
2010,07,14,11,32,20.90
2010,07,14,11,33,20.80
2010,07,14,11,34,20.80
2010,07,14,11,35,20.80
2010,07,14,11,36,20.90
2010,07,14,11,37,21.00
2010,07,14,11,38,21.00
2010,07,14,11,39,21.20
2010,07,14,11,40,21.30
2010,07,14,11,41,21.40
2010,07,14,11,42,21.50
2010,07,14,11,43,21.60
2010,07,14,11,44,21.60
2010,07,14,11,45,21.70
2010,07,14,11,46,21.70
2010,07,14,11,47,21.80
2010,07,14,11,48,21.90
2010,07,14,11,49,22.00
2010,07,14,11,50,22.10
2010,07,14,11,51,22.20
2010,07,14,11,52,22.20
2010,07,14,11,53,22.30
2010,07,14,11,54,22.20
2010,07,14,11,55,22.20
2010,07,14,11,56,22.10
2010,07,14,11,57,22.10
2010,07,14,11,58,22.10
2010,07,14,11,59,22.10
2010,07,14,12,00,22.20
2010,07,14,12,01,22.30
2010,07,14,12,02,22.50
2010,07,14,12,03,22.60
2010,07,14,12,04,22.70
2010,07,14,12,05,22.80
2010,07,14,12,13,22.50
2010,07,14,12,14,22.40
2010,07,14,12,15,22.30
2010,07,14,12,16,22.20
2010,07,14,12,17,22.20
2010,07,14,12,18,22.20
2010,07,14,12,19,22.20
2010,07,14,12,20,22.30
2010,07,14,12,21,22.40
2010,07,14,12,22,22.50
2010,07,14,12,23,22.50
2010,07,14,12,24,22.60
2010,07,14,12,25,22.70
2010,07,14,12,26,22.80
2010,07,14,12,27,22.80
2010,07,14,12,28,22.80
2010,07,14,12,29,22.80
2010,07,14,12,30,22.80
2010,07,14,12,31,22.80
2010,07,14,12,32,22.70
2010,07,14,12,33,22.70
2010,07,14,12,34,22.70
2010,07,14,12,35,22.70
2010,07,14,12,36,22.70
2010,07,14,12,37,22.80
2010,07,14,12,38,22.80
2010,07,14,12,39,22.80
2010,07,14,12,40,22.80
2010,07,14,12,41,22.80
2010,07,14,12,42,22.90
2010,07,14,12,43,23.00
2010,07,14,12,44,23.00
2010,07,14,12,45,23.10
2010,07,14,12,46,23.10
2010,07,14,12,47,23.10
2010,07,14,12,48,23.10
2010,07,14,12,49,23.10
2010,07,14,12,50,23.20
2010,07,14,12,51,23.20
2010,07,14,12,52,23.20
2010,07,14,12,53,23.30
2010,07,14,12,54,23.30
2010,07,14,12,55,23.30
2010,07,14,12,56,23.30
2010,07,14,12,57,23.30
2010,07,14,12,58,23.30
2010,07,14,12,59,23.20
2010,07,14,13,00,23.10
2010,07,14,13,01,22.90
2010,07,14,13,02,23.00
2010,07,14,13,03,23.10
2010,07,14,13,04,23.20
2010,07,14,13,05,23.20
2010,07,14,13,06,23.10
2010,07,14,13,07,22.90
2010,07,14,13,08,22.90
2010,07,14,13,09,22.80
2010,07,14,13,10,22.90
2010,07,14,13,11,23.00
2010,07,14,13,12,23.20
2010,07,14,13,13,23.30
2010,07,14,13,14,23.40
2010,07,14,13,15,23.50
2010,07,14,13,16,23.50
2010,07,14,13,17,23.60
2010,07,14,13,18,23.50
2010,07,14,13,19,23.40
2010,07,14,13,20,23.30
2010,07,14,13,21,23.20
2010,07,14,13,22,23.20
2010,07,14,13,23,23.10
2010,07,14,13,24,23.00
2010,07,14,13,25,22.90
2010,07,14,13,26,22.80
2010,07,14,13,27,22.70
2010,07,14,13,28,22.70
2010,07,14,13,29,22.70
2010,07,14,13,30,22.70
2010,07,14,13,31,22.70
2010,07,14,13,32,22.70
2010,07,14,13,33,22.80
2010,07,14,13,34,22.70
2010,07,14,13,35,22.70
2010,07,14,13,36,22.80
2010,07,14,13,37,22.90
2010,07,14,13,38,22.80
2010,07,14,13,39,22.80
2010,07,14,13,40,22.80
2010,07,14,13,41,22.90
2010,07,14,13,42,23.20
2010,07,14,13,43,23.20
2010,07,14,13,44,23.20
2010,07,14,13,45,23.10
2010,07,14,13,46,23.20
2010,07,14,13,47,23.30
2010,07,14,13,48,23.20
2010,07,14,13,49,23.00
2010,07,14,13,50,22.80
2010,07,14,13,51,22.80
2010,07,14,13,52,22.80
2010,07,14,13,53,22.70
2010,07,14,13,54,22.60
2010,07,14,13,55,22.70
2010,07,14,13,56,22.70
2010,07,14,13,57,22.70
2010,07,14,13,58,22.70
2010,07,14,13,59,22.70
2010,07,14,14,00,22.60
2010,07,14,14,01,22.60
2010,07,14,14,02,22.50
2010,07,14,14,03,22.60
2010,07,14,14,04,22.70
2010,07,14,14,05,22.80
2010,07,14,14,06,22.90
2010,07,14,14,07,23.10
2010,07,14,14,08,23.20
2010,07,14,14,09,23.30
2010,07,14,14,10,23.30
2010,07,14,14,11,23.40
2010,07,14,14,12,23.40
2010,07,14,14,13,23.40
2010,07,14,14,14,23.40
2010,07,14,14,15,23.40
2010,07,14,14,16,23.30
2010,07,14,14,17,23.20
2010,07,14,14,18,23.10
2010,07,14,14,19,23.20
2010,07,14,14,20,23.30
2010,07,14,14,21,23.40
2010,07,14,14,22,23.50
2010,07,14,14,23,23.30
2010,07,14,14,24,23.20
2010,07,14,14,25,23.20
2010,07,14,14,26,23.10
2010,07,14,14,27,23.10
2010,07,14,14,28,23.10
2010,07,14,14,29,23.20
2010,07,14,14,30,23.10
2010,07,14,14,31,23.10
2010,07,14,14,32,23.00
2010,07,14,14,33,23.00
2010,07,14,14,34,23.10
2010,07,14,14,35,23.10
2010,07,14,14,36,23.20
2010,07,14,14,37,23.20
2010,07,14,14,38,23.20
2010,07,14,14,39,23.20
2010,07,14,14,40,23.20
2010,07,14,14,41,23.30
2010,07,14,14,42,23.20
2010,07,14,14,43,23.20
2010,07,14,14,44,23.20
2010,07,14,14,45,23.20
2010,07,14,14,46,23.30
2010,07,14,14,47,23.30
2010,07,14,14,48,23.30
2010,07,14,14,49,23.40
2010,07,14,14,50,23.50
2010,07,14,14,51,23.40
2010,07,14,14,52,23.30
2010,07,14,14,53,23.30
2010,07,14,14,54,23.20
2010,07,14,14,55,23.30
2010,07,14,14,56,23.40
2010,07,14,14,57,23.40
2010,07,14,14,58,23.50
2010,07,14,14,59,23.60
2010,07,14,15,00,23.60
2010,07,14,15,01,23.50
2010,07,14,15,02,23.50
2010,07,14,15,03,23.40
2010,07,14,15,04,23.50
2010,07,14,15,05,23.50
2010,07,14,15,06,23.60
2010,07,14,15,07,23.60
2010,07,14,15,08,23.60
2010,07,14,15,09,23.50
2010,07,14,15,10,23.40
2010,07,14,15,11,23.30
2010,07,14,15,12,23.20
2010,07,14,15,13,23.10
2010,07,14,15,14,23.00
2010,07,14,15,15,23.00
2010,07,14,15,16,23.00
2010,07,14,15,17,23.00
2010,07,14,15,18,22.90
2010,07,14,15,19,22.90
2010,07,14,15,20,22.90
2010,07,14,15,21,22.90
2010,07,14,15,22,23.00
2010,07,14,15,23,23.10
2010,07,14,15,24,23.20
2010,07,14,15,25,23.20
2010,07,14,15,26,23.30
2010,07,14,15,27,23.30
2010,07,14,15,28,23.30
2010,07,14,15,29,23.30
2010,07,14,15,30,23.30
2010,07,14,15,31,23.20
2010,07,14,15,32,23.20
2010,07,14,15,33,23.10
2010,07,14,15,34,23.00
2010,07,14,15,35,22.90
2010,07,14,15,36,22.90
2010,07,14,15,37,22.90
2010,07,14,15,38,22.90
2010,07,14,15,39,22.90
2010,07,14,15,40,22.90
2010,07,14,15,41,23.00
2010,07,14,15,42,23.20
2010,07,14,15,43,23.30
2010,07,14,15,44,23.40
2010,07,14,15,45,23.30
2010,07,14,15,46,23.10
2010,07,14,15,47,23.00
2010,07,14,15,48,22.90
2010,07,14,15,49,22.90
2010,07,14,15,50,23.00
2010,07,14,15,51,23.10
2010,07,14,15,52,23.10
2010,07,14,15,53,23.10
2010,07,14,15,54,23.00
2010,07,14,15,55,22.90
2010,07,14,15,56,22.80
2010,07,14,15,57,22.80
2010,07,14,15,58,22.80
2010,07,14,15,59,22.80
2010,07,14,16,00,22.80
2010,07,14,16,01,22.80
2010,07,14,16,02,22.80
2010,07,14,16,03,22.80
2010,07,14,16,04,22.80
2010,07,14,16,05,22.80
2010,07,14,16,06,22.80
2010,07,14,16,07,22.70
2010,07,14,16,08,22.70
2010,07,14,16,09,22.70
2010,07,14,16,10,22.70
2010,07,14,16,11,22.80
2010,07,14,16,12,22.80
2010,07,14,16,13,22.90
2010,07,14,16,14,22.90
2010,07,14,16,15,23.00
2010,07,14,16,16,23.10
2010,07,14,16,17,23.20
2010,07,14,16,18,23.20
2010,07,14,16,19,23.30
2010,07,14,16,20,23.20
2010,07,14,16,21,23.20
2010,07,14,16,22,23.20
2010,07,14,16,23,23.20
2010,07,14,16,24,23.00
2010,07,14,16,25,23.00
2010,07,14,16,26,23.00
2010,07,14,16,27,23.10
2010,07,14,16,28,23.20
2010,07,14,16,29,23.20
2010,07,14,16,30,23.20
2010,07,14,16,31,23.30
2010,07,14,16,32,23.30
2010,07,14,16,33,23.30
2010,07,14,16,34,23.30
2010,07,14,16,35,23.30
2010,07,14,16,36,23.30
2010,07,14,16,37,23.30
2010,07,14,16,38,23.40
2010,07,14,16,39,23.30
2010,07,14,16,40,23.30
2010,07,14,16,41,23.30
2010,07,14,16,42,23.30
2010,07,14,16,43,23.30
2010,07,14,16,44,23.20
2010,07,14,16,45,23.20
2010,07,14,16,46,23.20
2010,07,14,16,47,23.20
2010,07,14,16,48,23.20
2010,07,14,16,49,23.20
2010,07,14,16,50,23.20
2010,07,14,16,51,23.20
2010,07,14,16,52,23.30
2010,07,14,16,53,23.30
2010,07,14,16,54,23.30
2010,07,14,16,55,23.30
2010,07,14,16,56,23.30
2010,07,14,16,57,23.30
2010,07,14,16,58,23.30
2010,07,14,16,59,23.30
2010,07,14,17,00,23.30
2010,07,14,17,01,23.30
2010,07,14,17,02,23.20
2010,07,14,17,03,23.20
2010,07,14,17,04,23.20
2010,07,14,17,05,23.20
2010,07,14,17,06,23.20
2010,07,14,17,07,23.30
2010,07,14,17,08,23.20
2010,07,14,17,09,23.20
2010,07,14,17,10,23.20
2010,07,14,17,11,23.20
2010,07,14,17,12,23.20
2010,07,14,17,13,23.20
2010,07,14,17,14,23.20
2010,07,14,17,15,23.20
2010,07,14,17,16,23.20
2010,07,14,17,17,23.20
2010,07,14,17,18,23.30
2010,07,14,17,19,23.30
2010,07,14,17,20,23.30
2010,07,14,17,21,23.30
2010,07,14,17,22,23.40
2010,07,14,17,23,23.40
2010,07,14,17,24,23.40
2010,07,14,17,25,23.40
2010,07,14,17,26,23.40
2010,07,14,17,27,23.50
2010,07,14,17,28,23.50
2010,07,14,17,29,23.60